Weather History for KMUO - October, 2013

Change the Weather History Date:

Thursday, October 31, 2013

  Actual Average Record
Temperature  
Mean Temperature 43 °F 45 °F  
Max Temperature 55 °F 58 °F 74 °F (2008)
Min Temperature 30 °F 32 °F 9 °F (2002)
Degree Days  
Heating Degree Days 22 19  
Month to date heating degree days 523 418  
Cooling Degree Days 0 0  
Month to date cooling degree days 0 2  
Moisture  
Dew Point 34 °F    
Average Humidity 74    
Maximum Humidity 96    
Minimum Humidity 47    
Precipitation  
Precipitation 0.00 in 0.04 in 0.66 in (1983)
Month to date precipitation 0.31  
Sea Level Pressure  
Sea Level Pressure 30.18 in    
Wind  
Wind Speed 5 mph (WNW)    
Max Wind Speed 10 mph    
Max Gust Speed -    
Visibility 10 miles    
Events      
T = Trace of Precipitation, MM = Missing Value Source: NWS Daily Summary

Daily Weather History Graph

Daily Weather History Graph

Search for Another Location

Airport or City:

Trip Planner

Search our weather history database for the weather conditions in past years. The results will help you decide how hot, cold, wet, or windy it might be!

Date:

Astronomy

Oct. 31, 2013 Rise Set
Actual Time 8:17 AM MDT 6:36 PM MDT
Civil Twilight 7:47 AM MDT 7:05 PM MDT
Nautical Twilight 7:14 AM MDT 7:39 PM MDT
Astronomical Twilight 6:41 AM MDT 8:12 PM MDT
Moon 5:06 AM MDT (10/31) 5:00 PM MDT (10/31)
Length of Visible Light 11h 18m
Length of Day
10h 19m
Waning Crescent, 9% of the Moon is Illuminated
Oct 31
Waning Crescent
Nov 3
New
Nov 9
First Quarter
Nov 17
Full
Nov 25
Last Quarter

Hourly Weather History & Observations

Time (MDT) Temp. Windchill Dew Point Humidity Pressure Visibility Wind Dir Wind Speed Gust Speed Precip Events Conditions
12:58 AM 38.8 °F 33.8 °F 35.4 °F 88% 30.15 in 10.0 mi WSW 6.9 mph - N/A   Mostly Cloudy
1:58 AM 37.0 °F 34.5 °F 34.3 °F 90% 30.16 in 10.0 mi West 3.5 mph - N/A   Scattered Clouds
2:58 AM 36.1 °F 32.3 °F 34.5 °F 94% 30.16 in 10.0 mi West 4.6 mph - N/A   Clear
3:58 AM 32.0 °F - 30.6 °F 94% 30.18 in 10.0 mi East 2.3 mph - N/A   Clear
4:58 AM 33.6 °F 30.6 °F 29.8 °F 86% 30.17 in 10.0 mi NW 3.5 mph - N/A   Clear
5:58 AM 30.4 °F 26.9 °F 28.2 °F 92% 30.19 in 10.0 mi WNW 3.5 mph - N/A   Clear
6:53 AM 32.0 °F 26.4 °F 28.4 °F 87% 30.16 in 10.0 mi West 5.8 mph - N/A   Mostly Cloudy
6:58 AM 32.5 °F 27.1 °F 29.1 °F 87% 30.20 in 10.0 mi West 5.8 mph - N/A   Mostly Cloudy
7:13 AM 32.0 °F 24.8 °F 30.2 °F 93% 30.16 in 10.0 mi West 8.1 mph - N/A   Scattered Clouds
7:58 AM 32.0 °F 27.5 °F 29.3 °F 90% 30.23 in 10.0 mi NW 4.6 mph - N/A   Clear
8:33 AM 32.0 °F - 30.2 °F 93% 30.17 in 10.0 mi NNW 2.3 mph - N/A   Mostly Cloudy
8:58 AM 34.7 °F - 31.1 °F 87% 30.23 in 10.0 mi Calm Calm - N/A   Mostly Cloudy
9:18 AM 35.6 °F - 32.0 °F 87% 30.18 in 10.0 mi Calm Calm - N/A   Overcast
9:48 AM 41.0 °F - 32.0 °F 70% 30.19 in 10.0 mi WNW 2.3 mph - N/A   Mostly Cloudy
9:58 AM 40.8 °F 38.8 °F 33.1 °F 74% 30.23 in 10.0 mi WNW 3.5 mph - N/A   Mostly Cloudy
10:58 AM 44.8 °F 43.3 °F 33.6 °F 65% 30.22 in 10.0 mi NW 3.5 mph - N/A   Mostly Cloudy
11:33 AM 46.4 °F 44.3 °F 33.8 °F 62% 30.20 in 10.0 mi WNW 4.6 mph - N/A   Overcast
11:58 AM 48.4 °F - 33.8 °F 57% 30.22 in 10.0 mi NW 9.2 mph - N/A   Overcast
12:58 PM 49.3 °F - 33.1 °F 54% 30.21 in 10.0 mi NNW 8.1 mph - N/A   Overcast
1:58 PM 50.0 °F - 33.4 °F 53% 30.19 in 10.0 mi NW 3.5 mph - N/A   Mostly Cloudy
2:13 PM 51.8 °F - 32.0 °F 47% 30.16 in 10.0 mi NW 3.5 mph - N/A   Mostly Cloudy
2:28 PM 51.8 °F - 32.0 °F 47% 30.17 in 10.0 mi NNW 8.1 mph - N/A   Mostly Cloudy
2:53 PM 51.8 °F - 33.8 °F 50% 30.15 in 10.0 mi NNW 6.9 mph - N/A   Partly Cloudy
2:58 PM 52.5 °F - 34.0 °F 49% 30.17 in 10.0 mi Variable 1.2 mph - N/A   Partly Cloudy
3:58 PM 54.5 °F - 34.9 °F 48% 30.17 in 10.0 mi Variable 4.6 mph - N/A   Scattered Clouds
4:58 PM 55.0 °F - 36.9 °F 50% 30.16 in 10.0 mi WNW 6.9 mph - N/A   Overcast
5:43 PM 55.4 °F - 37.4 °F 51% 30.13 in 10.0 mi West 5.8 mph - N/A   Mostly Cloudy
5:58 PM 54.7 °F - 37.8 °F 53% 30.15 in 10.0 mi WNW 4.6 mph - N/A   Overcast
6:23 PM 53.6 °F - 39.2 °F 58% 30.13 in 9.0 mi NNW 5.8 mph - N/A   Overcast
6:58 PM 51.8 °F - 38.1 °F 60% 30.16 in 10.0 mi North 8.1 mph - N/A   Mostly Cloudy
7:58 PM 44.6 °F 41.4 °F 37.4 °F 76% 30.19 in 10.0 mi NW 5.8 mph - N/A   Scattered Clouds
8:58 PM 46.2 °F 44.1 °F 39.6 °F 78% 30.20 in 10.0 mi NNW 4.6 mph - N/A   Mostly Cloudy
9:58 PM 42.8 °F 40.1 °F 39.2 °F 87% 30.21 in 10.0 mi WNW 4.6 mph - N/A   Partly Cloudy
10:58 PM 41.9 °F 36.3 °F 38.8 °F 89% 30.22 in 10.0 mi West 9.2 mph - N/A   Clear
11:43 PM 41.0 °F 34.7 °F 39.2 °F 93% 30.21 in 10.0 mi West 10.4 mph - N/A   Mostly Cloudy
11:48 PM 41.0 °F 35.2 °F 39.2 °F 93% 30.21 in 10.0 mi West 9.2 mph - N/A   Scattered Clouds
11:58 PM 40.3 °F 33.9 °F 39.2 °F 96% 30.22 in 10.0 mi West 10.4 mph - N/A   Scattered Clouds